{"data":{"norad_id":62126,"intl_designator":"2024-222N","name":"STARLINK-32490","alt_names":[],"object_type":"PAYLOAD","status":"ACTIVE","operator":null,"country":"US","launch_date":"2024-11-27","launch_site_code":"AFETR","launch_vehicle":null,"mission":null,"orbit_class":"UNKNOWN","rcs_meters":null,"size_class":null,"mass_kg":null,"dimensions":null,"purposes":["comms"],"wikipedia_slug":null,"has_3d_model":false,"image_url":null,"decayed_at":null,"tle_current":{"epoch":"2026-09-21T22:04:34.158720Z","epoch_age_seconds":59655,"freshness":"FRESH","line1":"1 62126U 24222N   26264.91983980  .00011090  00000+0  41177-3 0  9999","line2":"2 62126  43.0027 107.6520 0002937 280.1247  79.9273 15.27590694102762","mean_motion":15.27590694,"eccentricity":0.0002937,"inclination_deg":43.0027,"raan_deg":107.652,"arg_perigee_deg":280.1247,"mean_anomaly_deg":79.9273,"bstar":0.00041177,"rev_number":10276,"period_min":94.266088793023,"perigee_km":481.00195359162,"apogee_km":485.03219549501,"semimajor_km":6861.1540745433,"source":"CELESTRAK","updated_at":"2026-09-22T09:00:49.526091Z"}}}